Simultaneous Nadir Overpasses (SNOs) Predictions

Prediction of SNOs between NOAA-19 and TERRA Satellite Orbit:

Table of predicted SNOs for the next 14.0 days since TLE Epoch: 11/11/2011
Index Date Time (NOAA-19) NOAA-19 Lat,Lon TERRA Lat,Lon Distance(km) Time Diff (sec)
1 11/11/2011 17:27:16 68.86, -82.57 68.84, -82.59 2.35 13
2 11/11/2011 18:18:14 -68.53, 85.11 -68.60, 84.75 16.38 73
3 11/11/2011 19:07:58 64.33,-102.91 64.30,-112.08 442.03 16
4 11/13/2011 20:31:14 72.34,-134.11 72.31,-123.64 353.08 34
5 11/13/2011 21:21:12 -68.93, 38.84 -68.96, 38.86 2.96 65
6 11/13/2011 22:12:12 68.82,-153.76 68.80,-153.69 3.51 27
7 11/13/2011 23:02:43 -67.07, 15.71 -67.11, 11.96 162.36 60
8 11/16/2011 01:15:37 70.62, 157.81 70.51, 162.32 167.57 59
9 11/16/2011 02:06:07 -68.88, -32.32 -68.90, -32.27 2.73 26
10 11/16/2011 02:57:07 68.74, 135.11 68.74, 135.17 2.21 66
11 11/16/2011 03:47:06 -65.28, -53.56 -65.30, -60.95 343.26 36
12 11/18/2011 05:10:21 -73.21, -85.68 -73.15, -71.76 446.74 15
13 11/18/2011 06:00:05 69.13, 88.86 69.04, 89.22 17.57 72
14 11/18/2011 06:51:01 -68.78,-103.42 -68.81,-103.44 3.32 12
15 11/18/2011 07:41:41 67.54, 65.43 67.58, 62.73 114.66 65
16 11/20/2011 09:54:36 -71.15,-152.80 -71.07,-146.58 224.23 53
17 11/20/2011 10:44:56 68.85, 18.01 68.87, 17.94 2.96 38
18 11/20/2011 11:35:56 -68.75,-174.61 -68.75,-174.57 1.47 52
19 11/20/2011 12:26:05 65.80, -3.82 65.82, -10.19 290.21 44
20 11/22/2011
